Skip Page Navigation
NASA JPL Caltech
NASA Logo - Jet Propulsion Laboratory + View the NASA Portal
+ Near-Earth Object (NEO) Program
Search JPL
JPL Home Earth Solar System Stars & Galaxies Technology
JPL Solar System Dynamics
BODIES ORBITS EPHEMERIDES TOOLS PHYSICAL DATA DISCOVERY FAQ SITE MAP
JPL Small-Body Database Browser
Search: [ help ]  
11431 Karelbosscha (4843 T-1)
Classification: Main-belt Asteroid          SPK-ID: 2011431
Ephemeris | Orbit Diagram | Orbital Elements | Physical Parameters | Discovery Circumstances | Close-Approach Data ]

[ show orbit diagram ]
Orbital Elements at Epoch 2457000.5 (2014-Dec-09.0) TDB
Reference: JPL 7 (heliocentric ecliptic J2000)
 Element Value Uncertainty (1-sigma)   Units 
e .1238804194538449 1.1232e-07  
a 3.15147748146792 4.6969e-08 AU
q 2.761071129164328 3.5302e-07 AU
i 5.863564068752542 1.2057e-05 deg
node 35.80842371913575 7.5412e-05 deg
peri 167.655710308348 8.1418e-05 deg
M 290.8115298644481 3.6452e-05 deg
tp 2457393.236229471864
(2016-Jan-05.73622947)
0.00021181 JED
period 2043.476930952132
5.59
4.5683e-05
1.251e-07
d
yr
n .1761703274194843 3.9384e-09 deg/d
Q 3.541883833771514 5.2787e-08 AU
  Orbit Determination Parameters
   # obs. used (total)      397  
   data-arc span      15599 days (42.71 yr)  
   first obs. used      1971-04-16  
   last obs. used      2013-12-30  
   planetary ephem.      DE431  
   SB-pert. ephem.      SB431-BIG16  
   condition code      0  
   fit RMS      .5874  
   data source      ORB  
   producer      Otto Matic  
   solution date      2014-Jun-09 20:05:43  

Additional Information
 Earth MOID = 1.75915 AU 
 T_jup = 3.188 
[ show covariance matrix ]

Ephemeris | Orbit Diagram | Orbital Elements | Physical Parameters | Discovery Circumstances | Close-Approach Data ]

Physical Parameter Table
Parameter Symbol Value Units Sigma Reference Notes
absolute magnitude H 14.2 mag n/a MPO270243  

11431 Karelbosscha           Discovered 1971 May 13 by C. J. van Houten and I. van Houten-Groeneveld at Leiden on Palomar Schmidt plates taken by T. Gehrels.
Karel Albert Rudolf Bosscha (1865-1928) was a notable Dutch tea planter in Malabar, West Java, who, with his nephew Rudolf Albert Kerkhoven, greatly contributed to the establishment of an astronomical observatory in Lembang, near Bandung.
NOTE: some special characters may not display properly (any characters within {} are an attempt to place the proper accent above a character)
Reference: 20070926/MPCPages.arcLast Updated: 2007-09-30

[ show close-approach data ]
Alternate Designations
 4843 T-1 = 3199 T-2 
Ephemeris | Orbit Diagram | Orbital Elements | Physical Parameters | Discovery Circumstances | Close-Approach Data ]
ABOUT SSD CREDITS/AWARDS PRIVACY/COPYRIGHT GLOSSARY LINKS
FirstGov 2014-Sep-19 23:56 UT
(server date/time)  
NASA Home Page
Site Manager:   Donald K. Yeomans
Webmaster  Alan B. Chamberlin